Time,TemperatureF,DewpointF,PressureIn,WindDirection,WindDirectionDegrees,WindSpeedMPH,WindSpeedGustMPH,Humidity,HourlyPrecipIn,Conditions,Clouds,dailyrainin,SoftwareType,DateUTC
2013-11-24 00:05:00,29.1,28.4,30.09,ESE,120,0.0,8.0,97,0.00,,,0.00,Wunderground v.1.15,2013-11-24 08:05:00,
2013-11-24 00:11:00,29.1,28.4,30.09,ESE,120,0.0,8.0,97,0.00,,,0.00,Wunderground v.1.15,2013-11-24 08:11:00,
2013-11-24 00:16:00,29.0,28.0,30.09,ESE,120,0.0,8.0,96,0.00,,,0.00,Wunderground v.1.15,2013-11-24 08:16:00,
2013-11-24 00:22:00,28.8,27.8,30.09,ESE,120,0.0,8.0,96,0.00,,,0.00,Wunderground v.1.15,2013-11-24 08:22:00,
2013-11-24 00:27:00,28.8,27.8,30.09,ESE,120,0.0,8.0,96,0.00,,,0.00,Wunderground v.1.15,2013-11-24 08:27:00,
2013-11-24 00:33:00,28.7,27.7,30.09,ESE,120,0.0,8.0,96,0.00,,,0.00,Wunderground v.1.15,2013-11-24 08:33:00,
2013-11-24 00:39:00,28.6,27.6,30.09,ESE,120,0.0,8.0,96,0.00,,,0.00,Wunderground v.1.15,2013-11-24 08:39:00,
2013-11-24 00:45:00,28.6,27.6,30.09,ESE,120,0.0,8.0,96,0.00,,,0.00,Wunderground v.1.15,2013-11-24 08:45:00,
2013-11-24 00:51:00,28.6,27.9,30.09,ESE,120,0.0,8.0,97,0.00,,,0.00,Wunderground v.1.15,2013-11-24 08:51:00,
2013-11-24 00:57:00,28.5,27.5,30.09,ESE,120,0.0,8.0,96,0.00,,,0.00,Wunderground v.1.15,2013-11-24 08:57:00,
2013-11-24 01:03:00,28.5,27.5,30.09,ESE,120,0.0,8.0,96,0.00,,,0.00,Wunderground v.1.15,2013-11-24 09:03:00,
2013-11-24 01:08:00,28.5,27.5,30.09,ESE,120,0.0,8.0,96,0.00,,,0.00,Wunderground v.1.15,2013-11-24 09:08:00,
2013-11-24 01:13:00,28.6,27.9,30.09,ESE,120,0.0,8.0,97,0.00,,,0.00,Wunderground v.1.15,2013-11-24 09:13:00,
2013-11-24 01:18:00,28.6,27.6,30.09,ESE,120,0.0,8.0,96,0.00,,,0.00,Wunderground v.1.15,2013-11-24 09:18:00,
2013-11-24 01:24:00,28.6,27.6,30.09,ESE,120,0.0,8.0,96,0.00,,,0.00,Wunderground v.1.15,2013-11-24 09:24:00,
2013-11-24 01:30:00,28.5,27.5,30.09,ESE,120,0.0,8.0,96,0.00,,,0.00,Wunderground v.1.15,2013-11-24 09:30:00,
2013-11-24 01:35:00,28.4,27.4,30.09,ESE,120,0.0,8.0,96,0.00,,,0.00,Wunderground v.1.15,2013-11-24 09:35:00,
2013-11-24 01:40:00,28.4,27.4,30.09,ESE,120,0.0,8.0,96,0.00,,,0.00,Wunderground v.1.15,2013-11-24 09:40:00,
2013-11-24 01:46:00,28.4,27.7,30.09,ESE,120,0.0,8.0,97,0.00,,,0.00,Wunderground v.1.15,2013-11-24 09:46:00,
2013-11-24 01:52:00,28.5,27.8,30.09,ESE,120,0.0,8.0,97,0.00,,,0.00,Wunderground v.1.15,2013-11-24 09:52:00,
2013-11-24 01:57:00,28.5,27.8,30.09,ESE,120,0.0,8.0,97,0.00,,,0.00,Wunderground v.1.15,2013-11-24 09:57:00,
2013-11-24 02:03:00,28.4,27.4,30.09,ESE,120,0.0,8.0,96,0.00,,,0.00,Wunderground v.1.15,2013-11-24 10:03:00,
2013-11-24 02:09:00,28.2,27.2,30.09,ESE,120,0.0,8.0,96,0.00,,,0.00,Wunderground v.1.15,2013-11-24 10:09:00,
2013-11-24 02:15:00,28.2,27.5,30.09,ESE,120,0.0,8.0,97,0.00,,,0.00,Wunderground v.1.15,2013-11-24 10:15:00,
2013-11-24 02:21:00,28.2,27.5,30.09,ESE,120,0.0,8.0,97,0.00,,,0.00,Wunderground v.1.15,2013-11-24 10:21:00,
2013-11-24 02:27:00,28.2,27.5,30.10,ESE,120,0.0,8.0,97,0.00,,,0.00,Wunderground v.1.15,2013-11-24 10:27:00,
2013-11-24 02:32:00,28.1,27.4,30.09,ESE,120,0.0,8.0,97,0.00,,,0.00,Wunderground v.1.15,2013-11-24 10:32:00,
2013-11-24 02:38:00,28.0,27.3,30.09,ESE,120,0.0,8.0,97,0.00,,,0.00,Wunderground v.1.15,2013-11-24 10:38:00,
2013-11-24 02:44:00,28.0,27.3,30.09,ESE,120,0.0,8.0,97,0.00,,,0.00,Wunderground v.1.15,2013-11-24 10:44:00,
2013-11-24 02:50:00,28.2,27.5,30.09,ESE,120,0.0,8.0,97,0.00,,,0.00,Wunderground v.1.15,2013-11-24 10:50:00,
2013-11-24 02:56:00,28.2,27.5,30.09,ESE,120,0.0,8.0,97,0.00,,,0.00,Wunderground v.1.15,2013-11-24 10:56:00,
2013-11-24 03:02:00,28.2,27.5,30.09,ESE,120,0.0,8.0,97,0.00,,,0.00,Wunderground v.1.15,2013-11-24 11:02:00,
2013-11-24 03:07:00,28.1,27.4,30.09,ESE,120,0.0,8.0,97,0.00,,,0.00,Wunderground v.1.15,2013-11-24 11:07:00,
2013-11-24 03:13:00,28.1,27.4,30.09,ESE,120,0.0,8.0,97,0.00,,,0.00,Wunderground v.1.15,2013-11-24 11:13:00,
2013-11-24 03:19:00,28.5,27.8,30.09,WNW,290,1.0,8.0,97,0.00,,,0.00,Wunderground v.1.15,2013-11-24 11:19:00,
2013-11-24 03:25:00,28.6,27.9,30.09,WNW,290,1.0,8.0,97,0.00,,,0.00,Wunderground v.1.15,2013-11-24 11:25:00,
2013-11-24 03:30:00,28.3,27.3,30.09,WNW,290,0.0,8.0,96,0.00,,,0.00,Wunderground v.1.15,2013-11-24 11:30:00,
2013-11-24 03:36:00,27.9,26.9,30.09,WNW,290,0.0,8.0,96,0.00,,,0.00,Wunderground v.1.15,2013-11-24 11:36:00,
2013-11-24 03:42:00,27.9,26.9,30.09,WNW,290,0.0,8.0,96,0.00,,,0.00,Wunderground v.1.15,2013-11-24 11:42:00,
2013-11-24 03:48:00,27.9,27.2,30.09,WNW,290,0.0,8.0,97,0.00,,,0.00,Wunderground v.1.15,2013-11-24 11:48:00,
2013-11-24 03:53:00,27.9,27.2,30.09,WNW,290,0.0,8.0,97,0.00,,,0.00,Wunderground v.1.15,2013-11-24 11:53:00,
2013-11-24 03:59:00,27.9,27.2,30.09,WNW,290,0.0,8.0,97,0.00,,,0.00,Wunderground v.1.15,2013-11-24 11:59:00,
2013-11-24 04:04:00,28.1,27.4,30.09,WNW,290,0.0,8.0,97,0.00,,,0.00,Wunderground v.1.15,2013-11-24 12:04:00,
2013-11-24 04:09:00,27.9,27.2,30.09,WNW,290,0.0,8.0,97,0.00,,,0.00,Wunderground v.1.15,2013-11-24 12:09:00,
2013-11-24 04:14:00,27.9,27.2,30.09,WNW,290,0.0,8.0,97,0.00,,,0.00,Wunderground v.1.15,2013-11-24 12:14:00,
2013-11-24 04:20:00,27.8,27.1,30.09,WNW,290,0.0,8.0,97,0.00,,,0.00,Wunderground v.1.15,2013-11-24 12:20:00,
2013-11-24 04:26:00,27.9,27.2,30.10,WNW,290,0.0,8.0,97,0.00,,,0.00,Wunderground v.1.15,2013-11-24 12:26:00,
2013-11-24 04:31:00,27.9,27.2,30.10,WNW,290,0.0,8.0,97,0.00,,,0.00,Wunderground v.1.15,2013-11-24 12:31:00,
2013-11-24 04:36:00,27.9,27.2,30.10,WNW,290,0.0,8.0,97,0.00,,,0.00,Wunderground v.1.15,2013-11-24 12:36:00,
2013-11-24 04:42:00,27.8,27.1,30.10,WNW,290,0.0,8.0,97,0.00,,,0.00,Wunderground v.1.15,2013-11-24 12:42:00,
2013-11-24 04:47:00,27.7,27.0,30.10,WNW,290,0.0,8.0,97,0.00,,,0.00,Wunderground v.1.15,2013-11-24 12:47:00,
2013-11-24 04:52:00,27.7,27.0,30.10,WNW,290,0.0,8.0,97,0.00,,,0.00,Wunderground v.1.15,2013-11-24 12:52:00,
2013-11-24 04:58:00,27.8,27.1,30.11,WNW,290,0.0,8.0,97,0.00,,,0.00,Wunderground v.1.15,2013-11-24 12:58:00,
2013-11-24 05:04:00,27.6,26.6,30.11,WNW,290,0.0,8.0,96,0.00,,,0.00,Wunderground v.1.15,2013-11-24 13:04:00,
2013-11-24 05:09:00,27.5,26.5,30.11,WNW,290,0.0,8.0,96,0.00,,,0.00,Wunderground v.1.15,2013-11-24 13:09:00,
2013-11-24 05:15:00,27.7,27.0,30.11,WNW,290,0.0,8.0,97,0.00,,,0.00,Wunderground v.1.15,2013-11-24 13:15:00,
2013-11-24 05:21:00,27.8,27.1,30.11,WNW,290,0.0,8.0,97,0.00,,,0.00,Wunderground v.1.15,2013-11-24 13:21:00,
2013-11-24 05:26:00,27.7,27.0,30.11,WNW,290,0.0,8.0,97,0.00,,,0.00,Wunderground v.1.15,2013-11-24 13:26:00,
2013-11-24 05:31:00,27.6,26.9,30.11,WNW,290,0.0,8.0,97,0.00,,,0.00,Wunderground v.1.15,2013-11-24 13:31:00,
2013-11-24 05:36:00,27.5,26.5,30.11,WNW,290,0.0,8.0,96,0.00,,,0.00,Wunderground v.1.15,2013-11-24 13:36:00,
2013-11-24 05:41:00,27.4,26.4,30.11,WNW,290,0.0,8.0,96,0.00,,,0.00,Wunderground v.1.15,2013-11-24 13:41:00,
2013-11-24 05:46:00,27.4,26.7,30.11,WNW,290,0.0,8.0,97,0.00,,,0.00,Wunderground v.1.15,2013-11-24 13:46:00,
2013-11-24 05:52:00,27.4,26.7,30.11,WNW,290,0.0,8.0,97,0.00,,,0.00,Wunderground v.1.15,2013-11-24 13:52:00,
2013-11-24 05:57:00,27.3,26.6,30.11,WNW,290,0.0,8.0,97,0.00,,,0.00,Wunderground v.1.15,2013-11-24 13:57:00,
2013-11-24 06:02:00,27.3,26.6,30.11,WNW,290,0.0,8.0,97,0.00,,,0.00,Wunderground v.1.15,2013-11-24 14:02:00,
2013-11-24 06:08:00,27.3,26.6,30.11,WNW,290,0.0,8.0,97,0.00,,,0.00,Wunderground v.1.15,2013-11-24 14:08:00,
2013-11-24 06:13:00,27.1,26.4,30.11,WNW,290,0.0,8.0,97,0.00,,,0.00,Wunderground v.1.15,2013-11-24 14:13:00,
2013-11-24 06:18:00,27.0,26.3,30.11,WNW,290,0.0,8.0,97,0.00,,,0.00,Wunderground v.1.15,2013-11-24 14:18:00,
2013-11-24 06:23:00,26.9,25.9,30.11,WNW,290,0.0,8.0,96,0.00,,,0.00,Wunderground v.1.15,2013-11-24 14:23:00,
2013-11-24 06:28:00,26.7,25.7,30.11,WNW,290,0.0,8.0,96,0.00,,,0.00,Wunderground v.1.15,2013-11-24 14:28:00,
2013-11-24 06:33:00,26.7,25.7,30.11,WNW,290,0.0,8.0,96,0.00,,,0.00,Wunderground v.1.15,2013-11-24 14:33:00,
2013-11-24 06:38:00,26.7,26.0,30.11,WNW,290,0.0,8.0,97,0.00,,,0.00,Wunderground v.1.15,2013-11-24 14:38:00,
2013-11-24 06:43:00,27.0,26.3,30.11,WNW,290,0.0,8.0,97,0.00,,,0.00,Wunderground v.1.15,2013-11-24 14:43:00,
2013-11-24 06:49:00,27.3,26.6,30.12,WNW,290,0.0,8.0,97,0.00,,,0.00,Wunderground v.1.15,2013-11-24 14:49:00,
2013-11-24 06:55:00,27.3,26.6,30.12,WNW,290,0.0,8.0,97,0.00,,,0.00,Wunderground v.1.15,2013-11-24 14:55:00,
2013-11-24 07:00:00,27.2,26.5,30.12,WNW,290,0.0,8.0,97,0.00,,,0.00,Wunderground v.1.15,2013-11-24 15:00:00,
2013-11-24 07:05:00,27.0,26.3,30.12,WNW,290,0.0,8.0,97,0.00,,,0.00,Wunderground v.1.15,2013-11-24 15:05:00,
2013-11-24 07:10:00,26.7,25.7,30.12,WNW,290,0.0,8.0,96,0.00,,,0.00,Wunderground v.1.15,2013-11-24 15:10:00,
2013-11-24 07:16:00,26.8,26.1,30.12,WNW,290,0.0,8.0,97,0.00,,,0.00,Wunderground v.1.15,2013-11-24 15:16:00,
2013-11-24 07:21:00,26.9,26.2,30.12,WNW,290,0.0,8.0,97,0.00,,,0.00,Wunderground v.1.15,2013-11-24 15:21:00,
2013-11-24 07:27:00,27.1,26.4,30.12,WNW,294,0.0,8.0,97,0.00,,,0.00,Wunderground v.1.15,2013-11-24 15:27:00,
2013-11-24 07:32:00,27.1,26.4,30.12,WNW,294,0.0,8.0,97,0.00,,,0.00,Wunderground v.1.15,2013-11-24 15:32:00,
2013-11-24 07:37:00,26.8,25.8,30.12,WNW,294,0.0,8.0,96,0.00,,,0.00,Wunderground v.1.15,2013-11-24 15:37:00,
2013-11-24 07:43:00,26.6,25.6,30.13,WNW,294,0.0,8.0,96,0.00,,,0.00,Wunderground v.1.15,2013-11-24 15:43:00,
2013-11-24 07:48:00,26.7,26.0,30.13,WNW,294,0.0,8.0,97,0.00,,,0.00,Wunderground v.1.15,2013-11-24 15:48:00,
2013-11-24 07:54:00,26.6,25.9,30.13,WNW,294,0.0,8.0,97,0.00,,,0.00,Wunderground v.1.15,2013-11-24 15:54:00,
2013-11-24 08:00:00,26.7,26.0,30.13,WNW,294,0.0,8.0,97,0.00,,,0.00,Wunderground v.1.15,2013-11-24 16:00:00,
2013-11-24 08:06:00,26.9,26.2,30.13,WNW,294,0.0,8.0,97,0.00,,,0.00,Wunderground v.1.15,2013-11-24 16:06:00,
2013-11-24 08:12:00,27.3,26.6,30.13,WNW,294,0.0,8.0,97,0.00,,,0.00,Wunderground v.1.15,2013-11-24 16:12:00,
2013-11-24 08:18:00,27.9,27.2,30.13,WNW,294,0.0,8.0,97,0.00,,,0.00,Wunderground v.1.15,2013-11-24 16:18:00,
2013-11-24 08:24:00,27.9,27.2,30.13,WNW,294,0.0,8.0,97,0.00,,,0.00,Wunderground v.1.15,2013-11-24 16:24:00,
2013-11-24 08:30:00,27.9,27.2,30.14,WNW,294,0.0,8.0,97,0.00,,,0.00,Wunderground v.1.15,2013-11-24 16:30:00,
2013-11-24 08:36:00,28.3,27.6,30.14,WNW,294,0.0,8.0,97,0.00,,,0.00,Wunderground v.1.15,2013-11-24 16:36:00,
2013-11-24 08:42:00,28.4,27.7,30.14,WNW,294,0.0,8.0,97,0.00,,,0.00,Wunderground v.1.15,2013-11-24 16:42:00,
2013-11-24 08:48:00,28.5,27.8,30.14,WNW,294,0.0,8.0,97,0.00,,,0.00,Wunderground v.1.15,2013-11-24 16:48:00,
2013-11-24 08:54:00,29.0,28.3,30.14,WNW,294,0.0,8.0,97,0.00,,,0.00,Wunderground v.1.15,2013-11-24 16:54:00,
2013-11-24 09:00:00,29.9,29.2,30.14,WNW,294,0.0,8.0,97,0.00,,,0.00,Wunderground v.1.15,2013-11-24 17:00:00,
2013-11-24 09:06:00,30.6,29.9,30.14,WNW,294,0.0,8.0,97,0.00,,,0.00,Wunderground v.1.15,2013-11-24 17:06:00,
2013-11-24 09:12:00,31.4,30.6,30.14,WNW,294,0.0,8.0,97,0.00,,,0.00,Wunderground v.1.15,2013-11-24 17:12:00,
2013-11-24 09:17:00,31.8,31.0,30.14,WNW,294,0.0,8.0,97,0.00,,,0.00,Wunderground v.1.15,2013-11-24 17:17:00,
2013-11-24 09:23:00,32.3,31.5,30.14,WNW,294,0.0,8.0,97,0.00,,,0.00,Wunderground v.1.15,2013-11-24 17:23:00,
2013-11-24 09:29:00,32.8,32.0,30.14,WNW,294,0.0,8.0,97,0.00,,,0.00,Wunderground v.1.15,2013-11-24 17:29:00,
2013-11-24 09:35:00,33.2,32.4,30.14,WNW,285,1.0,8.0,97,0.00,,,0.00,Wunderground v.1.15,2013-11-24 17:35:00,
2013-11-24 09:41:00,33.7,32.9,30.14,WNW,285,1.0,8.0,97,0.00,,,0.00,Wunderground v.1.15,2013-11-24 17:41:00,
2013-11-24 09:47:00,34.4,33.6,30.14,WNW,285,1.0,8.0,97,0.00,,,0.00,Wunderground v.1.15,2013-11-24 17:47:00,
2013-11-24 09:53:00,35.3,34.5,30.14,WNW,285,1.0,8.0,97,0.00,,,0.00,Wunderground v.1.15,2013-11-24 17:53:00,
2013-11-24 09:58:00,36.0,35.2,30.15,WNW,285,1.0,8.0,97,0.00,,,0.00,Wunderground v.1.15,2013-11-24 17:58:00,
2013-11-24 10:05:00,37.3,36.5,30.15,WNW,285,0.0,8.0,97,0.00,,,0.00,Wunderground v.1.15,2013-11-24 18:05:00,
2013-11-24 10:11:00,38.2,37.2,30.15,WNW,285,0.0,8.0,96,0.00,,,0.00,Wunderground v.1.15,2013-11-24 18:11:00,
2013-11-24 10:16:00,39.0,38.0,30.15,WNW,285,0.0,8.0,96,0.00,,,0.00,Wunderground v.1.15,2013-11-24 18:16:00,
2013-11-24 10:22:00,40.2,38.6,30.15,WNW,285,0.0,8.0,94,0.00,,,0.00,Wunderground v.1.15,2013-11-24 18:22:00,
2013-11-24 10:28:00,40.8,38.7,30.15,WNW,285,0.0,8.0,92,0.00,,,0.00,Wunderground v.1.15,2013-11-24 18:28:00,
2013-11-24 10:34:00,41.7,39.3,30.15,WNW,285,0.0,8.0,91,0.00,,,0.00,Wunderground v.1.15,2013-11-24 18:34:00,
2013-11-24 10:39:00,42.3,39.9,30.15,WNW,285,0.0,8.0,91,0.00,,,0.00,Wunderground v.1.15,2013-11-24 18:39:00,
2013-11-24 10:45:00,43.6,41.4,30.15,WNW,285,0.0,8.0,92,0.00,,,0.00,Wunderground v.1.15,2013-11-24 18:45:00,
2013-11-24 10:51:00,44.3,41.3,30.15,WNW,285,0.0,8.0,89,0.00,,,0.00,Wunderground v.1.15,2013-11-24 18:51:00,
2013-11-24 10:57:00,44.5,40.9,30.15,WNW,285,0.0,8.0,87,0.00,,,0.00,Wunderground v.1.15,2013-11-24 18:57:00,
2013-11-24 11:02:00,44.6,40.7,30.15,WSW,240,0.0,8.0,86,0.00,,,0.00,Wunderground v.1.15,2013-11-24 19:02:00,
2013-11-24 11:08:00,44.4,40.8,30.14,WSW,240,0.0,8.0,87,0.00,,,0.00,Wunderground v.1.15,2013-11-24 19:08:00,
2013-11-24 11:14:00,45.3,40.7,30.14,SSW,209,0.0,8.0,84,0.00,,,0.00,Wunderground v.1.15,2013-11-24 19:14:00,
2013-11-24 11:19:00,46.5,40.7,30.14,SSW,204,0.0,8.0,80,0.00,,,0.00,Wunderground v.1.15,2013-11-24 19:19:00,
2013-11-24 11:25:00,47.9,40.4,30.13,SSW,198,0.0,8.0,75,0.00,,,0.00,Wunderground v.1.15,2013-11-24 19:25:00,
2013-11-24 11:31:00,49.7,38.8,30.13,SSW,194,1.0,2.0,66,0.00,,,0.00,Wunderground v.1.15,2013-11-24 19:31:00,
2013-11-24 11:37:00,50.6,37.6,30.13,SW,215,3.0,8.0,61,0.00,,,0.00,Wunderground v.1.15,2013-11-24 19:37:00,
2013-11-24 11:43:00,52.7,39.2,30.13,South,184,3.0,8.0,60,0.00,,,0.00,Wunderground v.1.15,2013-11-24 19:43:00,
2013-11-24 11:49:00,53.8,38.9,30.13,SSE,152,2.0,8.0,57,0.00,,,0.00,Wunderground v.1.15,2013-11-24 19:49:00,
2013-11-24 11:55:00,54.1,40.5,30.13,South,187,1.0,8.0,60,0.00,,,0.00,Wunderground v.1.15,2013-11-24 19:55:00,
2013-11-24 12:01:00,54.8,38.0,30.13,SW,232,0.0,8.0,53,0.00,,,0.00,Wunderground v.1.15,2013-11-24 20:01:00,
2013-11-24 12:07:00,55.2,39.8,30.12,SW,232,1.0,8.0,56,0.00,,,0.00,Wunderground v.1.15,2013-11-24 20:07:00,
2013-11-24 12:13:00,55.0,40.9,30.12,SW,232,0.0,8.0,59,0.00,,,0.00,Wunderground v.1.15,2013-11-24 20:13:00,
2013-11-24 12:19:00,55.7,39.3,30.12,South,181,0.0,8.0,54,0.00,,,0.00,Wunderground v.1.15,2013-11-24 20:19:00,
2013-11-24 12:24:00,55.7,37.3,30.12,South,181,0.0,8.0,50,0.00,,,0.00,Wunderground v.1.15,2013-11-24 20:24:00,
2013-11-24 12:30:00,56.0,44.8,30.12,South,181,0.0,8.0,66,0.00,,,0.00,Wunderground v.1.15,2013-11-24 20:30:00,
2013-11-24 12:36:00,56.8,36.8,30.12,SSE,161,0.0,8.0,47,0.00,,,0.00,Wunderground v.1.15,2013-11-24 20:36:00,
2013-11-24 12:42:00,57.9,36.7,30.12,South,181,0.0,8.0,45,0.00,,,0.00,Wunderground v.1.15,2013-11-24 20:42:00,
2013-11-24 12:48:00,58.0,38.4,30.12,South,181,0.0,8.0,48,0.00,,,0.00,Wunderground v.1.15,2013-11-24 20:48:00,
2013-11-24 12:53:00,57.8,39.8,30.12,South,182,0.0,8.0,51,0.00,,,0.00,Wunderground v.1.15,2013-11-24 20:53:00,
2013-11-24 12:58:00,57.6,43.4,30.12,SSW,207,0.0,8.0,59,0.00,,,0.00,Wunderground v.1.15,2013-11-24 20:58:00,
2013-11-24 13:04:00,56.9,44.0,30.12,SSW,207,0.0,8.0,62,0.00,,,0.00,Wunderground v.1.15,2013-11-24 21:04:00,
2013-11-24 13:10:00,56.7,41.6,30.12,SSW,207,0.0,8.0,57,0.00,,,0.00,Wunderground v.1.15,2013-11-24 21:10:00,
2013-11-24 13:16:00,57.5,44.6,30.12,SSW,207,0.0,8.0,62,0.00,,,0.00,Wunderground v.1.15,2013-11-24 21:16:00,
2013-11-24 13:22:00,57.9,40.9,30.12,South,177,0.0,8.0,53,0.00,,,0.00,Wunderground v.1.15,2013-11-24 21:22:00,
2013-11-24 13:28:00,58.3,41.7,30.12,SSE,159,0.0,8.0,54,0.00,,,0.00,Wunderground v.1.15,2013-11-24 21:28:00,
2013-11-24 13:34:00,58.6,41.5,30.13,SSW,210,1.0,8.0,53,0.00,,,0.00,Wunderground v.1.15,2013-11-24 21:34:00,
2013-11-24 13:40:00,58.9,37.0,30.13,SSW,210,0.0,8.0,44,0.00,,,0.00,Wunderground v.1.15,2013-11-24 21:40:00,
2013-11-24 13:46:00,58.1,42.0,30.13,SSW,210,0.0,8.0,55,0.00,,,0.00,Wunderground v.1.15,2013-11-24 21:46:00,
2013-11-24 13:52:00,57.8,44.9,30.13,SSW,210,0.0,8.0,62,0.00,,,0.00,Wunderground v.1.15,2013-11-24 21:52:00,
2013-11-24 13:58:00,56.9,45.3,30.13,SSW,210,0.0,8.0,65,0.00,,,0.00,Wunderground v.1.15,2013-11-24 21:58:00,
2013-11-24 14:04:00,57.2,45.5,30.13,SSW,210,0.0,8.0,65,0.00,,,0.00,Wunderground v.1.15,2013-11-24 22:04:00,
2013-11-24 14:10:00,57.3,40.8,30.13,SSW,210,0.0,8.0,54,0.00,,,0.00,Wunderground v.1.15,2013-11-24 22:10:00,
2013-11-24 14:16:00,57.3,44.4,30.13,SSW,211,0.0,8.0,62,0.00,,,0.00,Wunderground v.1.15,2013-11-24 22:16:00,
2013-11-24 14:22:00,57.2,40.7,30.13,SSW,213,0.0,8.0,54,0.00,,,0.00,Wunderground v.1.15,2013-11-24 22:22:00,
2013-11-24 14:28:00,56.4,44.0,30.14,SSW,213,0.0,8.0,63,0.00,,,0.00,Wunderground v.1.15,2013-11-24 22:28:00,
2013-11-24 14:34:00,56.6,41.1,30.14,SSW,213,0.0,8.0,56,0.00,,,0.00,Wunderground v.1.15,2013-11-24 22:34:00,
2013-11-24 14:39:00,56.3,42.1,30.14,SSW,202,0.0,8.0,59,0.00,,,0.00,Wunderground v.1.15,2013-11-24 22:39:00,
2013-11-24 14:45:00,55.6,43.6,30.14,SSW,202,0.0,8.0,64,0.00,,,0.00,Wunderground v.1.15,2013-11-24 22:45:00,
2013-11-24 14:51:00,55.0,44.2,30.14,SSW,202,0.0,8.0,67,0.00,,,0.00,Wunderground v.1.15,2013-11-24 22:51:00,
2013-11-24 14:57:00,54.8,44.0,30.14,SSW,202,0.0,8.0,67,0.00,,,0.00,Wunderground v.1.15,2013-11-24 22:57:00,
2013-11-24 15:02:00,53.8,43.1,30.15,SSW,202,0.0,8.0,67,0.00,,,0.00,Wunderground v.1.15,2013-11-24 23:02:00,
2013-11-24 15:08:00,51.1,41.7,30.15,West,274,0.0,8.0,70,0.00,,,0.00,Wunderground v.1.15,2013-11-24 23:08:00,
2013-11-24 15:13:00,50.4,41.7,30.15,West,274,0.0,8.0,72,0.00,,,0.00,Wunderground v.1.15,2013-11-24 23:13:00,
2013-11-24 15:19:00,49.4,41.5,30.15,West,274,0.0,8.0,74,0.00,,,0.00,Wunderground v.1.15,2013-11-24 23:19:00,
2013-11-24 15:25:00,48.4,41.2,30.15,West,274,0.0,8.0,76,0.00,,,0.00,Wunderground v.1.15,2013-11-24 23:25:00,
2013-11-24 15:31:00,47.6,41.1,30.15,West,274,0.0,8.0,78,0.00,,,0.00,Wunderground v.1.15,2013-11-24 23:31:00,
2013-11-24 15:37:00,46.8,41.3,30.15,West,274,0.0,8.0,81,0.00,,,0.00,Wunderground v.1.15,2013-11-24 23:37:00,
2013-11-24 15:43:00,46.1,40.9,30.15,West,274,0.0,8.0,82,0.00,,,0.00,Wunderground v.1.15,2013-11-24 23:43:00,
2013-11-24 15:49:00,45.7,41.1,30.16,West,274,0.0,8.0,84,0.00,,,0.00,Wunderground v.1.15,2013-11-24 23:49:00,
2013-11-24 15:54:00,45.2,40.7,30.16,West,274,0.0,8.0,84,0.00,,,0.00,Wunderground v.1.15,2013-11-24 23:54:00,
2013-11-24 16:00:00,44.7,40.5,30.16,West,274,0.0,8.0,85,0.00,,,0.00,Wunderground v.1.15,2013-11-25 00:00:00,
2013-11-24 16:06:00,44.3,40.4,30.16,West,274,0.0,8.0,86,0.00,,,0.00,Wunderground v.1.15,2013-11-25 00:06:00,
2013-11-24 16:12:00,43.9,40.0,30.16,West,274,0.0,8.0,86,0.00,,,0.00,Wunderground v.1.15,2013-11-25 00:12:00,
2013-11-24 16:17:00,43.4,39.8,30.16,West,274,0.0,8.0,87,0.00,,,0.00,Wunderground v.1.15,2013-11-25 00:17:00,
2013-11-24 16:23:00,42.9,39.3,30.16,West,274,0.0,8.0,87,0.00,,,0.00,Wunderground v.1.15,2013-11-25 00:23:00,
2013-11-24 16:29:00,42.4,39.1,30.16,West,274,0.0,8.0,88,0.00,,,0.00,Wunderground v.1.15,2013-11-25 00:29:00,
2013-11-24 16:34:00,42.2,39.2,30.16,West,274,0.0,8.0,89,0.00,,,0.00,Wunderground v.1.15,2013-11-25 00:34:00,
2013-11-24 16:40:00,42.0,38.7,30.17,West,274,0.0,8.0,88,0.00,,,0.00,Wunderground v.1.15,2013-11-25 00:40:00,
2013-11-24 16:46:00,41.4,38.1,30.17,West,274,0.0,8.0,88,0.00,,,0.00,Wunderground v.1.15,2013-11-25 00:46:00,
2013-11-24 16:52:00,40.7,37.7,30.17,West,274,0.0,8.0,89,0.00,,,0.00,Wunderground v.1.15,2013-11-25 00:52:00,
2013-11-24 16:58:00,40.5,38.1,30.17,West,274,0.0,8.0,91,0.00,,,0.00,Wunderground v.1.15,2013-11-25 00:58:00,
2013-11-24 17:04:00,39.9,37.2,30.17,West,274,0.0,8.0,90,0.00,,,0.00,Wunderground v.1.15,2013-11-25 01:04:00,
2013-11-24 17:10:00,39.5,37.1,30.17,West,274,0.0,8.0,91,0.00,,,0.00,Wunderground v.1.15,2013-11-25 01:10:00,
2013-11-24 17:15:00,39.2,36.5,30.17,West,274,0.0,8.0,90,0.00,,,0.00,Wunderground v.1.15,2013-11-25 01:15:00,
2013-11-24 17:21:00,38.6,35.9,30.17,West,274,0.0,8.0,90,0.00,,,0.00,Wunderground v.1.15,2013-11-25 01:21:00,
2013-11-24 17:26:00,38.2,35.8,30.17,West,274,0.0,8.0,91,0.00,,,0.00,Wunderground v.1.15,2013-11-25 01:26:00,
2013-11-24 17:32:00,38.0,35.9,30.17,West,274,0.0,8.0,92,0.00,,,0.00,Wunderground v.1.15,2013-11-25 01:32:00,
2013-11-24 17:38:00,37.4,35.3,30.17,West,274,0.0,8.0,92,0.00,,,0.00,Wunderground v.1.15,2013-11-25 01:38:00,
2013-11-24 17:43:00,36.9,34.8,30.17,West,274,0.0,8.0,92,0.00,,,0.00,Wunderground v.1.15,2013-11-25 01:43:00,
2013-11-24 17:48:00,37.2,35.6,30.17,West,274,0.0,8.0,94,0.00,,,0.00,Wunderground v.1.15,2013-11-25 01:48:00,
2013-11-24 17:53:00,36.9,35.1,30.17,West,274,0.0,8.0,93,0.00,,,0.00,Wunderground v.1.15,2013-11-25 01:53:00,
2013-11-24 17:59:00,36.5,34.7,30.18,West,274,0.0,8.0,93,0.00,,,0.00,Wunderground v.1.15,2013-11-25 01:59:00,
2013-11-24 18:04:00,36.3,34.5,30.18,West,274,0.0,8.0,93,0.00,,,0.00,Wunderground v.1.15,2013-11-25 02:04:00,
2013-11-24 18:09:00,35.9,34.1,30.18,West,274,0.0,8.0,93,0.00,,,0.00,Wunderground v.1.15,2013-11-25 02:09:00,
2013-11-24 18:14:00,36.1,34.5,30.18,West,274,0.0,8.0,94,0.00,,,0.00,Wunderground v.1.15,2013-11-25 02:14:00,
2013-11-24 18:19:00,36.2,34.9,30.18,West,274,0.0,8.0,95,0.00,,,0.00,Wunderground v.1.15,2013-11-25 02:19:00,
2013-11-24 18:25:00,35.7,34.1,30.18,West,274,0.0,8.0,94,0.00,,,0.00,Wunderground v.1.15,2013-11-25 02:25:00,
2013-11-24 18:31:00,35.4,33.8,30.18,West,274,0.0,8.0,94,0.00,,,0.00,Wunderground v.1.15,2013-11-25 02:31:00,
2013-11-24 18:37:00,35.1,33.5,30.19,West,274,0.0,8.0,94,0.00,,,0.00,Wunderground v.1.15,2013-11-25 02:37:00,
2013-11-24 18:43:00,34.9,33.3,30.18,West,274,0.0,8.0,94,0.00,,,0.00,Wunderground v.1.15,2013-11-25 02:43:00,
2013-11-24 18:49:00,34.8,33.5,30.19,West,274,0.0,8.0,95,0.00,,,0.00,Wunderground v.1.15,2013-11-25 02:49:00,
2013-11-24 18:55:00,34.5,33.0,30.19,West,274,0.0,8.0,94,0.00,,,0.00,Wunderground v.1.15,2013-11-25 02:55:00,
2013-11-24 19:00:00,34.2,32.7,30.19,West,274,0.0,8.0,94,0.00,,,0.00,Wunderground v.1.15,2013-11-25 03:00:00,
2013-11-24 19:06:00,34.0,32.5,30.19,West,274,0.0,8.0,94,0.00,,,0.00,Wunderground v.1.15,2013-11-25 03:06:00,
2013-11-24 19:11:00,33.8,32.5,30.19,West,274,0.0,8.0,95,0.00,,,0.00,Wunderground v.1.15,2013-11-25 03:11:00,
2013-11-24 19:17:00,33.6,32.1,30.20,West,274,0.0,8.0,94,0.00,,,0.00,Wunderground v.1.15,2013-11-25 03:17:00,
2013-11-24 19:23:00,33.4,32.1,30.20,West,274,0.0,8.0,95,0.00,,,0.00,Wunderground v.1.15,2013-11-25 03:23:00,
2013-11-24 19:29:00,33.4,32.1,30.19,West,274,0.0,8.0,95,0.00,,,0.00,Wunderground v.1.15,2013-11-25 03:29:00,
2013-11-24 19:35:00,33.8,32.8,30.19,West,274,0.0,8.0,96,0.00,,,0.00,Wunderground v.1.15,2013-11-25 03:35:00,
2013-11-24 19:40:00,33.9,32.9,30.19,West,274,0.0,8.0,96,0.00,,,0.00,Wunderground v.1.15,2013-11-25 03:40:00,
2013-11-24 19:46:00,33.7,32.4,30.19,West,274,0.0,8.0,95,0.00,,,0.00,Wunderground v.1.15,2013-11-25 03:46:00,
2013-11-24 19:52:00,33.5,32.2,30.20,West,274,0.0,8.0,95,0.00,,,0.00,Wunderground v.1.15,2013-11-25 03:52:00,
2013-11-24 19:57:00,33.3,32.0,30.19,West,274,0.0,8.0,95,0.00,,,0.00,Wunderground v.1.15,2013-11-25 03:57:00,
2013-11-24 20:03:00,33.1,31.8,30.19,West,274,0.0,8.0,95,0.00,,,0.00,Wunderground v.1.15,2013-11-25 04:03:00,
2013-11-24 20:09:00,32.9,31.6,30.20,West,274,0.0,8.0,95,0.00,,,0.00,Wunderground v.1.15,2013-11-25 04:09:00,
2013-11-24 20:14:00,32.8,31.5,30.20,NNE,32,1.0,8.0,95,0.00,,,0.00,Wunderground v.1.15,2013-11-25 04:14:00,
2013-11-24 20:20:00,32.4,31.1,30.20,NNE,32,1.0,1.0,95,0.00,,,0.00,Wunderground v.1.15,2013-11-25 04:20:00,
2013-11-24 20:25:00,32.4,31.1,30.20,North,5,0.0,8.0,95,0.00,,,0.00,Wunderground v.1.15,2013-11-25 04:25:00,
2013-11-24 20:31:00,32.3,31.3,30.20,North,5,0.0,8.0,96,0.00,,,0.00,Wunderground v.1.15,2013-11-25 04:31:00,
2013-11-24 20:36:00,32.1,30.8,30.20,North,5,0.0,8.0,95,0.00,,,0.00,Wunderground v.1.15,2013-11-25 04:36:00,
2013-11-24 20:42:00,31.9,30.6,30.20,North,5,0.0,8.0,95,0.00,,,0.00,Wunderground v.1.15,2013-11-25 04:42:00,
2013-11-24 20:48:00,31.8,30.5,30.20,North,5,0.0,8.0,95,0.00,,,0.00,Wunderground v.1.15,2013-11-25 04:48:00,
2013-11-24 20:54:00,31.5,30.5,30.20,North,5,0.0,8.0,96,0.00,,,0.00,Wunderground v.1.15,2013-11-25 04:54:00,
2013-11-24 20:59:00,31.5,30.5,30.20,North,5,0.0,8.0,96,0.00,,,0.00,Wunderground v.1.15,2013-11-25 04:59:00,
2013-11-24 21:01:00,31.5,30.5,30.20,North,5,0.0,8.0,96,0.00,,,0.00,Wunderground v.1.15,2013-11-25 05:01:00,
2013-11-24 21:02:00,31.5,30.5,30.20,North,5,0.0,8.0,96,0.00,,,0.00,Wunderground v.1.15,2013-11-25 05:02:00,
2013-11-24 21:03:00,31.5,30.5,30.20,North,5,0.0,8.0,96,0.00,,,0.00,Wunderground v.1.15,2013-11-25 05:03:00,
2013-11-24 21:04:00,31.5,30.5,30.20,North,5,0.0,8.0,96,0.00,,,0.00,Wunderground v.1.15,2013-11-25 05:04:00,
2013-11-24 21:10:00,31.5,30.5,30.20,North,5,0.0,8.0,96,0.00,,,0.00,Wunderground v.1.15,2013-11-25 05:10:00,
2013-11-24 21:11:00,31.4,30.4,30.20,North,5,0.0,8.0,96,0.00,,,0.00,Wunderground v.1.15,2013-11-25 05:11:00,
2013-11-24 21:14:00,31.5,30.5,30.20,North,5,0.0,8.0,96,0.00,,,0.00,Wunderground v.1.15,2013-11-25 05:14:00,
2013-11-24 21:19:00,31.3,30.3,30.20,North,5,0.0,8.0,96,0.00,,,0.00,Wunderground v.1.15,2013-11-25 05:19:00,
2013-11-24 21:24:00,31.2,30.2,30.20,North,5,0.0,8.0,96,0.00,,,0.00,Wunderground v.1.15,2013-11-25 05:24:00,
2013-11-24 21:30:00,31.1,30.1,30.20,North,5,0.0,8.0,96,0.00,,,0.00,Wunderground v.1.15,2013-11-25 05:30:00,
2013-11-24 21:35:00,31.0,30.0,30.20,North,5,0.0,8.0,96,0.00,,,0.00,Wunderground v.1.15,2013-11-25 05:35:00,
2013-11-24 21:41:00,31.4,30.4,30.20,North,5,0.0,8.0,96,0.00,,,0.00,Wunderground v.1.15,2013-11-25 05:41:00,
2013-11-24 21:47:00,31.1,30.1,30.20,North,5,0.0,8.0,96,0.00,,,0.00,Wunderground v.1.15,2013-11-25 05:47:00,
2013-11-24 21:53:00,30.8,29.8,30.20,North,5,0.0,8.0,96,0.00,,,0.00,Wunderground v.1.15,2013-11-25 05:53:00,
2013-11-24 21:58:00,30.9,29.9,30.20,North,5,0.0,8.0,96,0.00,,,0.00,Wunderground v.1.15,2013-11-25 05:58:00,
2013-11-24 22:03:00,31.0,30.0,30.20,North,5,0.0,8.0,96,0.00,,,0.00,Wunderground v.1.15,2013-11-25 06:03:00,
2013-11-24 22:08:00,30.9,29.9,30.20,North,5,0.0,8.0,96,0.00,,,0.00,Wunderground v.1.15,2013-11-25 06:08:00,
2013-11-24 22:14:00,30.6,29.6,30.20,North,5,0.0,8.0,96,0.00,,,0.00,Wunderground v.1.15,2013-11-25 06:14:00,
2013-11-24 22:20:00,30.8,29.8,30.20,NW,304,0.0,8.0,96,0.00,,,0.00,Wunderground v.1.15,2013-11-25 06:20:00,
2013-11-24 22:26:00,30.6,29.6,30.20,NW,304,1.0,8.0,96,0.00,,,0.00,Wunderground v.1.15,2013-11-25 06:26:00,
2013-11-24 22:32:00,30.6,29.6,30.20,NW,304,0.0,8.0,96,0.00,,,0.00,Wunderground v.1.15,2013-11-25 06:32:00,
2013-11-24 22:37:00,30.5,29.5,30.20,NW,304,0.0,8.0,96,0.00,,,0.00,Wunderground v.1.15,2013-11-25 06:37:00,
2013-11-24 22:43:00,30.3,29.3,30.20,NW,304,0.0,8.0,96,0.00,,,0.00,Wunderground v.1.15,2013-11-25 06:43:00,
2013-11-24 22:49:00,30.3,29.3,30.21,NW,304,0.0,8.0,96,0.00,,,0.00,Wunderground v.1.15,2013-11-25 06:49:00,
2013-11-24 22:55:00,30.2,29.2,30.21,NW,304,0.0,8.0,96,0.00,,,0.00,Wunderground v.1.15,2013-11-25 06:55:00,
2013-11-24 23:01:00,30.0,29.0,30.21,NW,304,0.0,8.0,96,0.00,,,0.00,Wunderground v.1.15,2013-11-25 07:01:00,
2013-11-24 23:07:00,29.9,28.9,30.21,NW,304,0.0,8.0,96,0.00,,,0.00,Wunderground v.1.15,2013-11-25 07:07:00,
2013-11-24 23:13:00,29.8,28.8,30.21,NW,304,0.0,8.0,96,0.00,,,0.00,Wunderground v.1.15,2013-11-25 07:13:00,
2013-11-24 23:19:00,29.6,28.6,30.22,NW,304,0.0,8.0,96,0.00,,,0.00,Wunderground v.1.15,2013-11-25 07:19:00,
2013-11-24 23:25:00,29.6,28.6,30.22,NW,304,0.0,8.0,96,0.00,,,0.00,Wunderground v.1.15,2013-11-25 07:25:00,
2013-11-24 23:30:00,29.4,28.4,30.22,NW,304,0.0,8.0,96,0.00,,,0.00,Wunderground v.1.15,2013-11-25 07:30:00,
2013-11-24 23:35:00,29.4,28.4,30.22,NW,304,0.0,8.0,96,0.00,,,0.00,Wunderground v.1.15,2013-11-25 07:35:00,
2013-11-24 23:40:00,29.3,28.3,30.22,NW,304,0.0,8.0,96,0.00,,,0.00,Wunderground v.1.15,2013-11-25 07:40:00,
2013-11-24 23:46:00,29.4,28.4,30.23,NW,304,0.0,8.0,96,0.00,,,0.00,Wunderground v.1.15,2013-11-25 07:46:00,
2013-11-24 23:52:00,29.3,28.3,30.22,NNW,342,0.0,8.0,96,0.00,,,0.00,Wunderground v.1.15,2013-11-25 07:52:00,
2013-11-24 23:58:00,29.2,28.2,30.23,NNW,341,0.0,8.0,96,0.00,,,0.00,Wunderground v.1.15,2013-11-25 07:58:00,